EN

Hourly Weather Laczany

Today, 30 July, Friday

Time Temperature Precipitation Wind Pressure Humidity
00:00 +19°C° 0 mm 2 mps 744 mmHg 67%
01:00 +18°C° 0 mm 2 mps 744 mmHg 71%
02:00 +18°C° 0 mm 2 mps 744 mmHg 73%
03:00 +17°C° 0 mm 2 mps 744 mmHg 74%
04:00 +17°C° 0 mm 2 mps 744 mmHg 75%
05:00 +18°C° 0 mm 2 mps 744 mmHg 71%
06:00 +19°C° 0 mm 2 mps 745 mmHg 67%
07:00 +20°C° 0 mm 2 mps 745 mmHg 64%
08:00 +22°C° 0 mm 3 mps 744 mmHg 58%
09:00 +24°C° 0 mm 3 mps 744 mmHg 52%
10:00 +26°C° 0 mm 4 mps 744 mmHg 47%
11:00 +27°C° 0 mm 4 mps 744 mmHg 43%
12:00 +28°C° 0 mm 5 mps 743 mmHg 39%
13:00 +29°C° 0 mm 5 mps 743 mmHg 35%
14:00 +29°C° 0 mm 5 mps 743 mmHg 35%
15:00 +29°C° 0 mm 5 mps 743 mmHg 35%
16:00 +29°C° 0 mm 5 mps 742 mmHg 35%
17:00 +27°C° 0 mm 4 mps 742 mmHg 42%
18:00 +26°C° 0 mm 3 mps 742 mmHg 48%
19:00 +24°C° 0 mm 2 mps 742 mmHg 55%
20:00 +23°C° 0 mm 1 mps 742 mmHg 57%
21:00 +22°C° 0 mm 1 mps 742 mmHg 58%
22:00 +21°C° 0 mm 1 mps 742 mmHg 60%
23:00 +21°C° 0 mm 1 mps 742 mmHg 61%

Tomorrow, 31 July, Saturday

Time Temperature Precipitation Wind Pressure Humidity
00:00 +20°C° 0 mm 2 mps 742 mmHg 63%
01:00 +19°C° 0 mm 2 mps 742 mmHg 65%
02:00 +19°C° 0 mm 2 mps 742 mmHg 66%
03:00 +19°C° 0 mm 2 mps 741 mmHg 67%
04:00 +19°C° 0 mm 2 mps 741 mmHg 69%
05:00 +20°C° 0 mm 3 mps 741 mmHg 67%
06:00 +21°C° 0 mm 3 mps 741 mmHg 65%
07:00 +22°C° 0 mm 4 mps 742 mmHg 64%
08:00 +23°C° 0 mm 4 mps 742 mmHg 61%
09:00 +25°C° 0 mm 4 mps 742 mmHg 59%
10:00 +26°C° 0 mm 4 mps 742 mmHg 56%
11:00 +26°C° 0 mm 4 mps 742 mmHg 54%
12:00 +27°C° 0 mm 5 mps 742 mmHg 52%
13:00 +27°C° 0 mm 5 mps 742 mmHg 49%
14:00 +27°C° 0 mm 5 mps 742 mmHg 46%
15:00 +28°C° 0 mm 5 mps 742 mmHg 42%
16:00 +28°C° 0 mm 5 mps 742 mmHg 38%
17:00 +27°C° 0 mm 4 mps 742 mmHg 42%
18:00 +25°C° 0 mm 3 mps 742 mmHg 47%
19:00 +24°C° 0 mm 3 mps 742 mmHg 51%
20:00 +22°C° 0 mm 3 mps 742 mmHg 52%
21:00 +20°C° 0 mm 2 mps 743 mmHg 54%
22:00 +19°C° 0 mm 2 mps 743 mmHg 56%
23:00 +18°C° 0 mm 2 mps 743 mmHg 59%

Day after tomorrow, 1 August, Sunday

Time Temperature Precipitation Wind Pressure Humidity
00:00 +19°C° 0 mm 1 mps 743 mmHg 62%
01:00 +18°C° 0 mm 1 mps 743 mmHg 65%
02:00 +18°C° 0 mm 1 mps 743 mmHg 66%
03:00 +16°C° 0 mm 1 mps 743 mmHg 68%
04:00 +16°C° 0 mm 1 mps 743 mmHg 69%
05:00 +18°C° 0 mm 1 mps 743 mmHg 66%
06:00 +19°C° 0 mm 1 mps 743 mmHg 63%
07:00 +21°C° 0 mm 1 mps 743 mmHg 60%
08:00 +18°C° 2.4 mm 2 mps 743 mmHg 71%
09:00 +17°C° 2.4 mm 2 mps 743 mmHg 81%
10:00 +16°C° 2.4 mm 2 mps 743 mmHg 92%
11:00 +17°C° 0.9 mm 2 mps 743 mmHg 90%
12:00 +17°C° 0.9 mm 2 mps 743 mmHg 87%
13:00 +18°C° 0.9 mm 2 mps 743 mmHg 84%
14:00 +18°C° 0.1 mm 2 mps 743 mmHg 81%
15:00 +20°C° 0.1 mm 1 mps 743 mmHg 77%
16:00 +20°C° 0.1 mm 1 mps 743 mmHg 74%
17:00 +19°C° 0 mm 1 mps 743 mmHg 78%
18:00 +19°C° 0 mm 1 mps 742 mmHg 81%
19:00 +18°C° 0 mm 1 mps 742 mmHg 85%
20:00 +18°C° 0 mm 1 mps 742 mmHg 85%
21:00 +18°C° 0 mm 1 mps 742 mmHg 86%
22:00 +18°C° 0 mm 1 mps 743 mmHg 86%
23:00 +17°C° 0 mm 2 mps 742 mmHg 86%

2 August, Monday

Time Temperature Precipitation Wind Pressure Humidity
00:00 +17°C° 0 mm 2 mps 742 mmHg 86%
01:00 +17°C° 0 mm 2 mps 742 mmHg 85%
02:00 +16°C° 0.5 mm 2 mps 742 mmHg 88%
03:00 +16°C° 0.5 mm 3 mps 742 mmHg 91%
04:00 +16°C° 0.5 mm 3 mps 743 mmHg 94%
05:00 +17°C° 0.2 mm 3 mps 743 mmHg 90%
06:00 +17°C° 0.2 mm 3 mps 743 mmHg 86%
07:00 +18°C° 0.2 mm 3 mps 743 mmHg 83%
08:00 +19°C° 0.5 mm 4 mps 743 mmHg 75%
09:00 +21°C° 0.5 mm 4 mps 744 mmHg 68%
10:00 +22°C° 0.5 mm 5 mps 744 mmHg 61%
11:00 +22°C° 0.4 mm 5 mps 744 mmHg 59%
12:00 +23°C° 0.4 mm 5 mps 744 mmHg 57%
13:00 +23°C° 0.4 mm 5 mps 744 mmHg 55%
14:00 +23°C° 0.2 mm 5 mps 744 mmHg 56%
15:00 +22°C° 0.2 mm 5 mps 744 mmHg 58%
16:00 +22°C° 0.2 mm 5 mps 744 mmHg 59%
17:00 +21°C° 0.3 mm 4 mps 745 mmHg 65%
18:00 +20°C° 0.3 mm 3 mps 745 mmHg 71%
19:00 +19°C° 0.3 mm 3 mps 745 mmHg 77%
20:00 +18°C° 0 mm 3 mps 745 mmHg 80%
21:00 +17°C° 0 mm 2 mps 746 mmHg 83%
22:00 +16°C° 0 mm 2 mps 746 mmHg 86%
23:00 +15°C° 0 mm 2 mps 746 mmHg 87%

3 August, Tuesday

Time Temperature Precipitation Wind Pressure Humidity
00:00 +15°C° 0 mm 2 mps 747 mmHg 88%
01:00 +15°C° 0 mm 2 mps 747 mmHg 90%
02:00 +14°C° 0 mm 2 mps 747 mmHg 90%
03:00 +14°C° 0 mm 2 mps 747 mmHg 91%
04:00 +14°C° 0 mm 2 mps 747 mmHg 92%
05:00 +15°C° 0 mm 2 mps 747 mmHg 86%
06:00 +16°C° 0 mm 2 mps 748 mmHg 81%
07:00 +18°C° 0 mm 2 mps 748 mmHg 76%
08:00 +19°C° 0 mm 2 mps 748 mmHg 68%
09:00 +21°C° 0 mm 2 mps 748 mmHg 61%
10:00 +23°C° 0 mm 2 mps 748 mmHg 54%
11:00 +24°C° 0 mm 2 mps 747 mmHg 51%
12:00 +24°C° 0 mm 2 mps 747 mmHg 49%
13:00 +25°C° 0 mm 2 mps 747 mmHg 46%
14:00 +25°C° 0 mm 1 mps 746 mmHg 47%
15:00 +25°C° 0 mm 1 mps 746 mmHg 48%
16:00 +25°C° 0 mm 1 mps 746 mmHg 49%
17:00 +24°C° 0 mm 2 mps 746 mmHg 53%
18:00 +23°C° 0 mm 2 mps 746 mmHg 56%
19:00 +21°C° 0 mm 3 mps 745 mmHg 60%
20:00 +21°C° 0 mm 3 mps 745 mmHg 63%
21:00 +20°C° 0 mm 3 mps 745 mmHg 65%
22:00 +19°C° 0 mm 3 mps 745 mmHg 67%
23:00 +18°C° 0.5 mm 3 mps 745 mmHg 76%

4 August, Wednesday

Time Temperature Precipitation Wind Pressure Humidity
00:00 +17°C° 0.5 mm 3 mps 745 mmHg 84%
01:00 +16°C° 0.5 mm 3 mps 745 mmHg 92%
02:00 +16°C° 0.7 mm 2 mps 745 mmHg 93%
03:00 +16°C° 0.7 mm 2 mps 745 mmHg 95%
04:00 +16°C° 0.7 mm 2 mps 744 mmHg 96%
05:00 +17°C° 0.1 mm 2 mps 745 mmHg 91%
06:00 +17°C° 0.1 mm 3 mps 745 mmHg 86%
07:00 +18°C° 0.1 mm 3 mps 745 mmHg 82%
08:00 +19°C° 0 mm 3 mps 745 mmHg 75%
09:00 +20°C° 0 mm 4 mps 745 mmHg 69%
10:00 +21°C° 0 mm 4 mps 745 mmHg 62%
11:00 +22°C° 0 mm 4 mps 745 mmHg 59%
12:00 +22°C° 0 mm 4 mps 744 mmHg 55%
13:00 +23°C° 0 mm 4 mps 744 mmHg 52%
14:00 +24°C° 0 mm 3 mps 744 mmHg 52%
15:00 +24°C° 0 mm 3 mps 744 mmHg 51%
16:00 +24°C° 0 mm 2 mps 744 mmHg 51%
17:00 +23°C° 0 mm 2 mps 744 mmHg 55%
18:00 +21°C° 0 mm 2 mps 744 mmHg 60%
19:00 +21°C° 0 mm 1 mps 743 mmHg 64%
20:00 +21°C° 0 mm 1 mps 743 mmHg 66%
21:00 +20°C° 0 mm 1 mps 743 mmHg 67%
22:00 +20°C° 0 mm 1 mps 743 mmHg 68%
23:00 +19°C° 0 mm 1 mps 743 mmHg 69%
Show more